Location: Appleton
(44.2618°N, 88.4157°W)
Time: 10:36:10
(UTC+00:00)

S-56A Canister/Altair - Pass Details

Date: 06 March 2021
Orbit: 632 x 2500 km, 38.9° (Epoch: 14 April)

Event Time Altitude Azimuth Distance (km) Brightness Sun altitude
Rises 17:57:40 0° 220° (SW) 5,068 12.3 40.3°
Reaches altitude 10° 18:00:52 10° 213° (SSW) 4,305 12.2 40.4°
Maximum altitude 18:12:16 45° 147° (SSE) 2,946 11.9 40.3°
Drops below altitude 10° 18:26:01 10° 82° (E) 5,167 11.7 40.1°
Sets 18:30:15 0° 77° (ENE) 6,141 12.0 40.0°
